Location: Koussan�
(15.2012°N, 12.5548°W)
Time: 00:46:10
(UTC+00:00)

Cosmos 407 Rocket - Visible Passes

Search period start: 27 February 2021 00:00
Search period end: 09 March 2021 00:00
Orbit: 744 x 786 km, 74.0° (Epoch: 26 February)

Date Brightness Start Highest point End Pass type
(mag) Time Alt. Az. Time Alt. Az. Time Alt. Az.
27 Feb 7.2 19:19:28 10° WNW 19:21:22 12° W 19:23:17 10° WSW visible
28 Feb 4.4 06:15:12 10° S 06:20:20 54° ESE 06:25:24 10° NNE visible
01 Mar 5.7 05:38:09 10° SSE 05:42:29 26° E 05:46:46 10° NE visible
02 Mar 6.6 05:02:32 10° ESE 05:04:40 12° E 05:06:47 10° ENE visible
02 Mar 3.9 06:41:21 10° SW 06:46:15 40° WNW 06:51:06 10° N visible
03 Mar 3.4 06:03:03 10° SSW 06:08:19 83° WNW 06:13:31 10° NNE visible
04 Mar 4.5 05:25:25 10° S 05:30:26 47° ESE 05:35:23 10° NNE visible
05 Mar 5.7 04:48:32 10° SSE 04:52:35 23° E 04:56:36 10° NE visible
05 Mar 4.6 06:30:16 10° SW 06:34:19 23° WNW 06:38:21 10° NNW visible
06 Mar 6.5 04:13:48 10° ESE 04:14:47 10° E 04:15:46 10° E visible
06 Mar 3.7 05:51:24 10° SSW 05:56:20 46° WNW 06:01:17 10° N visible
07 Mar 3.4 05:17:23 59° S 05:18:24 86° ESE 05:23:36 10° NNE visible
08 Mar 5.0 04:42:06 32° ENE 04:42:06 32° ENE 04:45:21 10° NNE visible
08 Mar 5.2 06:22:24 12° WNW 06:22:26 12° WNW 06:24:35 10° NW visible
